Location: Alpino
(32.5215°N, 116.5815°W)
Time: 09:56:47
(UTC+00:00)

Cosmos 1674 - Pass Details

Date: 13 April 2024
Orbit: 440 x 455 km, 82.5° (Epoch: 22 May)

Event Time Altitude Azimuth Distance (km) Brightness Sun altitude
Rises 11:23:44 0° 145° (SE) 2,417 6.2 -23.5°
Reaches altitude 10° 11:26:43 10° 115° (ESE) 1,551 5.6 -23.0°
Drops below altitude 10° 11:29:45 10° 61° (ENE) 1,555 6.3 -22.4°
Enters shadow 12:33:21 -54° 190° (S) 10,869 9.3 -10.1°
Maximum altitude 13:02:22 21° 281° (WNW) 1,043 3.7 -4.2°
